| time (UTC) | temp F | wind direction | speed MPH | gust MPH | rain 1hr in | rain 24hr in | rain mn in | humidity % | barometer mb |
| 20260509154004 | 74 | 54 | 3.0 | 9.0 | 0.00 | 0.00 | 0.00 | 40 | 1012.2 |
| 20260509153503 | 75 | 21 | 4.0 | 6.0 | 0.00 | 0.00 | 0.00 | 41 | 1012.3 |
| 20260509153004 | 75 | 8 | 5.0 | 11.0 | 0.00 | 0.00 | 0.00 | 41 | 1012.2 |
| 20260509152003 | 76 | 328 | 5.0 | 9.0 | 0.00 | 0.00 | 0.00 | 42 | 1012.3 |
| 20260509151504 | 76 | 348 | 4.0 | 10.0 | 0.00 | 0.00 | 0.00 | 42 | 1012.0 |
| 20260509150503 | 76 | 348 | 3.0 | 9.0 | 0.00 | 0.00 | 0.00 | 42 | 1012.2 |
| 20260509150005 | 76 | 3 | 4.0 | 8.0 | 0.00 | 0.00 | 0.00 | 42 | 1011.8 |
| 20260509145503 | 76 | 358 | 5.0 | 7.0 | 0.00 | 0.00 | 0.00 | 43 | 1012.1 |
| 20260509145004 | 76 | 345 | 5.0 | 9.0 | 0.00 | 0.00 | 0.00 | 43 | 1012.1 |
| 20260509144504 | 76 | 353 | 3.0 | 9.0 | 0.00 | 0.00 | 0.00 | 43 | 1012.0 |
| 20260509144003 | 76 | 6 | 3.0 | 8.0 | 0.00 | 0.00 | 0.00 | 43 | 1012.1 |
| 20260509143504 | 76 | 11 | 4.0 | 10.0 | 0.00 | 0.00 | 0.00 | 42 | 1011.9 |
| 20260509143004 | 75 | 12 | 4.0 | 12.0 | 0.00 | 0.00 | 0.00 | 43 | 1012.1 |
| 20260509142503 | 75 | 9 | 5.0 | 12.0 | 0.00 | 0.00 | 0.00 | 43 | 1012.1 |
| 20260509141004 | 76 | 31 | 7.0 | 13.0 | 0.00 | 0.00 | 0.00 | 42 | 1012.1 |
| 20260509140503 | 76 | 34 | 7.0 | 13.0 | 0.00 | 0.00 | 0.00 | 41 | 1012.1 |
| 20260509140005 | 77 | 17 | 6.0 | 11.0 | 0.00 | 0.00 | 0.00 | 40 | 1012.1 |
| 20260509135504 | 78 | 30 | 6.0 | 12.0 | 0.00 | 0.00 | 0.00 | 40 | 1012.1 |
| 20260509135003 | 78 | 46 | 7.0 | 13.0 | 0.00 | 0.00 | 0.00 | 35 | 1012.1 |
| 20260509134504 | 78 | 50 | 7.0 | 13.0 | 0.00 | 0.00 | 0.00 | 35 | 1012.4 |
| 20260509134003 | 78 | 53 | 6.0 | 11.0 | 0.00 | 0.00 | 0.00 | 34 | 1012.1 |
| 20260509133504 | 78 | 28 | 7.0 | 12.0 | 0.00 | 0.00 | 0.00 | 33 | 1012.1 |
| 20260509133004 | 78 | 41 | 7.0 | 13.0 | 0.00 | 0.00 | 0.00 | 33 | 1012.2 |
| 20260509132503 | 78 | 77 | 7.0 | 13.0 | 0.00 | 0.00 | 0.00 | 32 | 1012.3 |
| 20260509132004 | 78 | 64 | 7.0 | 12.0 | 0.00 | 0.00 | 0.00 | 33 | 1012.2 |
| 20260509131504 | 78 | 31 | 8.0 | 15.0 | 0.00 | 0.00 | 0.00 | 34 | 1012.4 |
| 20260509131003 | 78 | 35 | 8.0 | 15.0 | 0.00 | 0.00 | 0.00 | 33 | 1012.6 |
| 20260509130004 | 78 | 5 | 8.0 | 13.0 | 0.00 | 0.00 | 0.00 | 35 | 1012.6 |
| 20260509125503 | 78 | 29 | 8.0 | 14.0 | 0.00 | 0.00 | 0.00 | 34 | 1012.4 |
| 20260509124504 | 78 | 34 | 8.0 | 14.0 | 0.00 | 0.00 | 0.00 | 34 | 1012.8 |
| 20260509124004 | 78 | 42 | 8.0 | 16.0 | 0.00 | 0.00 | 0.00 | 33 | 1012.7 |
| 20260509123503 | 78 | 50 | 8.0 | 16.0 | 0.00 | 0.00 | 0.00 | 32 | 1012.8 |
| 20260509123004 | 78 | 49 | 7.0 | 13.0 | 0.00 | 0.00 | 0.00 | 33 | 1012.9 |
| 20260509122503 | 78 | 33 | 6.0 | 12.0 | 0.00 | 0.00 | 0.00 | 34 | 1012.8 |
| 20260509122004 | 78 | 37 | 8.0 | 18.0 | 0.00 | 0.00 | 0.00 | 35 | 1013.0 |
| 20260509121503 | 78 | 45 | 8.0 | 18.0 | 0.00 | 0.00 | 0.00 | 33 | 1013.0 |
| 20260509121004 | 79 | 45 | 7.0 | 13.0 | 0.00 | 0.00 | 0.00 | 33 | 1013.0 |
| 20260509120504 | 79 | 44 | 8.0 | 13.0 | 0.00 | 0.00 | 0.00 | 32 | 1013.1 |
| 20260509120005 | 79 | 37 | 7.0 | 13.0 | 0.00 | 0.00 | 0.00 | 31 | 1013.1 |
| 20260509115504 | 78 | 29 | 7.0 | 13.0 | 0.00 | 0.00 | 0.00 | 32 | 1013.0 |
| 20260509115004 | 78 | 31 | 7.0 | 14.0 | 0.00 | 0.00 | 0.00 | 31 | 1013.1 |
| 20260509114004 | 78 | 59 | 7.0 | 13.0 | 0.00 | 0.00 | 0.00 | 33 | 1013.1 |
| 20260509113504 | 78 | 60 | 7.0 | 15.0 | 0.00 | 0.00 | 0.00 | 33 | 1013.2 |
| 20260509113005 | 78 | 55 | 8.0 | 15.0 | 0.00 | 0.00 | 0.00 | 33 | 1013.1 |
| 20260509112504 | 78 | 40 | 9.0 | 15.0 | 0.00 | 0.00 | 0.00 | 34 | 1013.1 |
| 20260509112005 | 78 | 41 | 8.0 | 15.0 | 0.00 | 0.00 | 0.00 | 32 | 1013.2 |
| 20260509111506 | 78 | 55 | 7.0 | 13.0 | 0.00 | 0.00 | 0.00 | 31 | 1013.3 |
| 20260509110504 | 78 | 34 | 7.0 | 16.0 | 0.00 | 0.00 | 0.00 | 30 | 1013.2 |
| 20260509110004 | 78 | 45 | 8.0 | 14.0 | 0.00 | 0.00 | 0.00 | 31 | 1013.3 |
| 20260509105003 | 78 | 61 | 8.0 | 14.0 | 0.00 | 0.00 | 0.00 | 31 | 1013.5 |
| 20260509104504 | 79 | 47 | 7.0 | 13.0 | 0.00 | 0.00 | 0.00 | 30 | 1013.4 |
| 20260509104003 | 79 | 32 | 7.0 | 13.0 | 0.00 | 0.00 | 0.00 | 29 | 1013.5 |
| 20260509103504 | 79 | 57 | 6.0 | 14.0 | 0.00 | 0.00 | 0.00 | 30 | 1013.4 |
| 20260509103004 | 79 | 45 | 6.0 | 14.0 | 0.00 | 0.00 | 0.00 | 31 | 1013.5 |
| 20260509102004 | 79 | 41 | 6.0 | 13.0 | 0.00 | 0.00 | 0.00 | 32 | 1013.3 |
| 20260509101504 | 79 | 63 | 5.0 | 13.0 | 0.00 | 0.00 | 0.00 | 31 | 1013.3 |
| 20260509101003 | 78 | 93 | 4.0 | 8.0 | 0.00 | 0.00 | 0.00 | 32 | 1013.4 |
| 20260509100504 | 78 | 86 | 4.0 | 8.0 | 0.00 | 0.00 | 0.00 | 33 | 1013.5 |
| 20260509095503 | 78 | 34 | 4.0 | 10.0 | 0.00 | 0.00 | 0.00 | 34 | 1013.7 |
| 20260509095004 | 77 | 38 | 6.0 | 13.0 | 0.00 | 0.00 | 0.00 | 33 | 1013.6 |
| 20260509094504 | 77 | 43 | 6.0 | 13.0 | 0.00 | 0.00 | 0.00 | 32 | 1013.9 |
| 20260509094004 | 77 | 38 | 6.0 | 10.0 | 0.00 | 0.00 | 0.00 | 33 | 1014.1 |
| 20260509093004 | 77 | 47 | 5.0 | 9.0 | 0.00 | 0.00 | 0.00 | 33 | 1014.0 |
| 20260509092504 | 77 | 65 | 5.0 | 9.0 | 0.00 | 0.00 | 0.00 | 32 | 1014.2 |
| 20260509092003 | 77 | 48 | 5.0 | 10.0 | 0.00 | 0.00 | 0.00 | 33 | 1014.3 |
| 20260509091504 | 77 | 40 | 5.0 | 11.0 | 0.00 | 0.00 | 0.00 | 32 | 1014.4 |
| 20260509090504 | 76 | 54 | 5.0 | 11.0 | 0.00 | 0.00 | 0.00 | 32 | 1014.3 |
| 20260509090004 | 77 | 60 | 5.0 | 11.0 | 0.00 | 0.00 | 0.00 | 32 | 1014.6 |
| 20260509085503 | 77 | 58 | 5.0 | 11.0 | 0.00 | 0.00 | 0.00 | 32 | 1014.5 |
| 20260509085004 | 78 | 40 | 4.0 | 9.0 | 0.00 | 0.00 | 0.00 | 33 | 1014.5 |
| 20260509071505 | 72 | 90 | 3.0 | 6.0 | 0.00 | 0.00 | 0.00 | 50 | 1014.9 |
| 20260509071004 | 72 | 93 | 3.0 | 6.0 | 0.00 | 0.00 | 0.00 | 51 | 1014.8 |
| 20260509070504 | 72 | 84 | 2.0 | 6.0 | 0.00 | 0.00 | 0.00 | 51 | 1014.8 |
| 20260509070005 | 72 | 64 | 1.0 | 5.0 | 0.00 | 0.00 | 0.00 | 52 | 1014.9 |
| 20260509064505 | 72 | 77 | 2.0 | 5.0 | 0.00 | 0.00 | 0.00 | 50 | 1014.9 |
| 20260509064005 | 72 | 102 | 1.0 | 5.0 | 0.00 | 0.00 | 0.00 | 51 | 1014.9 |
| 20260509063504 | 71 | 131 | 1.0 | 4.0 | 0.00 | 0.00 | 0.00 | 51 | 1014.9 |
| 20260509063004 | 70 | 118 | 1.0 | 4.0 | 0.00 | 0.00 | 0.00 | 52 | 1014.9 |
| 20260509062504 | 70 | 83 | 0.0 | 4.0 | 0.00 | 0.00 | 0.00 | 54 | 1014.8 |
| 20260509062004 | 69 | 78 | 1.0 | 4.0 | 0.00 | 0.00 | 0.00 | 56 | 1015.2 |
| 20260509061505 | 68 | 93 | 1.0 | 4.0 | 0.00 | 0.00 | 0.00 | 58 | 1014.9 |
| 20260509061004 | 67 | 101 | 1.0 | 4.0 | 0.00 | 0.00 | 0.00 | 61 | 1014.8 |
| 20260509060505 | 66 | 73 | 1.0 | 4.0 | 0.00 | 0.00 | 0.00 | 62 | 1015.0 |
| 20260509060005 | 65 | 81 | 2.0 | 4.0 | 0.00 | 0.00 | 0.00 | 62 | 1015.0 |
| 20260509055504 | 65 | 93 | 2.0 | 4.0 | 0.00 | 0.00 | 0.00 | 64 | 1014.9 |
| 20260509054504 | 63 | 65 | 2.0 | 4.0 | 0.00 | 0.00 | 0.00 | 67 | 1014.8 |
| 20260509054004 | 63 | 66 | 2.0 | 4.0 | 0.00 | 0.00 | 0.00 | 68 | 1014.8 |
| 20260509053504 | 62 | 61 | 1.0 | 4.0 | 0.00 | 0.00 | 0.00 | 68 | 1014.9 |
| 20260509053005 | 62 | 70 | 2.0 | 4.0 | 0.00 | 0.00 | 0.00 | 69 | 1014.8 |
| 20260509052005 | 61 | 62 | 1.0 | 4.0 | 0.00 | 0.00 | 0.00 | 69 | 1014.8 |
| 20260509051505 | 61 | 68 | 1.0 | 3.0 | 0.00 | 0.00 | 0.00 | 69 | 1015.1 |
| 20260509051004 | 61 | 133 | 0.0 | 3.0 | 0.00 | 0.00 | 0.00 | 69 | 1015.0 |
| 20260509050504 | 61 | 201 | 1.0 | 4.0 | 0.00 | 0.00 | 0.00 | 69 | 1014.7 |
| 20260509045005 | 61 | 177 | 1.0 | 6.0 | 0.00 | 0.00 | 0.00 | 69 | 1015.1 |
| 20260509044505 | 61 | 212 | 2.0 | 6.0 | 0.00 | 0.00 | 0.00 | 69 | 1015.1 |
| 20260509044004 | 61 | 205 | 2.0 | 5.0 | 0.00 | 0.00 | 0.00 | 70 | 1015.1 |
| 20260509043504 | 60 | 195 | 1.0 | 4.0 | 0.00 | 0.00 | 0.00 | 71 | 1014.9 |
| 20260509043005 | 60 | 272 | 1.0 | 4.0 | 0.00 | 0.00 | 0.00 | 72 | 1015.1 |
| 20260509042504 | 60 | 279 | 1.0 | 4.0 | 0.00 | 0.00 | 0.00 | 73 | 1015.0 |
| 20260509042004 | 59 | 280 | 1.0 | 4.0 | 0.00 | 0.00 | 0.00 | 73 | 1015.2 |
| 20260509041505 | 59 | 307 | 1.0 | 4.0 | 0.00 | 0.00 | 0.00 | 73 | 1015.0 |
| 20260509041004 | 59 | 58 | 0.0 | 3.0 | 0.00 | 0.00 | 0.00 | 73 | 1015.0 |
| 20260509040504 | 59 | 322 | 0.0 | 3.0 | 0.00 | 0.00 | 0.00 | 73 | 1015.0 |
| 20260509040005 | 58 | 277 | 0.0 | 4.0 | 0.00 | 0.00 | 0.00 | 73 | 1015.0 |
| 20260509035504 | 58 | 253 | 1.0 | 4.0 | 0.00 | 0.00 | 0.00 | 73 | 1014.9 |
| 20260509034505 | 58 | 232 | 1.0 | 4.0 | 0.00 | 0.00 | 0.00 | 72 | 1014.7 |
| 20260509033005 | 59 | 225 | 1.0 | 4.0 | 0.00 | 0.00 | 0.00 | 70 | 1015.0 |
| 20260509032004 | 59 | 171 | 1.0 | 4.0 | 0.00 | 0.00 | 0.00 | 70 | 1014.6 |
| 20260509031505 | 59 | 192 | 1.0 | 4.0 | 0.00 | 0.00 | 0.00 | 69 | 1014.8 |
| 20260509031004 | 59 | 218 | 0.0 | 4.0 | 0.00 | 0.00 | 0.00 | 69 | 1014.9 |
| 20260509030504 | 59 | 196 | 0.0 | 2.0 | 0.00 | 0.00 | 0.00 | 68 | 1014.6 |
| 20260509030005 | 59 | 231 | 0.0 | 2.0 | 0.00 | 0.00 | 0.00 | 68 | 1014.9 |
| 20260509025504 | 59 | 254 | 0.0 | 2.0 | 0.00 | 0.00 | 0.00 | 68 | 1014.7 |
| 20260509025004 | 59 | 199 | 0.0 | 2.0 | 0.00 | 0.00 | 0.00 | 67 | 1014.5 |
| 20260509024505 | 59 | 167 | 0.0 | 3.0 | 0.00 | 0.00 | 0.00 | 67 | 1014.5 |
| 20260509024004 | 60 | 161 | 0.0 | 3.0 | 0.00 | 0.00 | 0.00 | 67 | 1014.8 |
| 20260509023505 | 60 | 135 | 0.0 | 2.0 | 0.00 | 0.00 | 0.00 | 66 | 1014.6 |
| 20260509022005 | 61 | 181 | 0.0 | 2.0 | 0.00 | 0.00 | 0.00 | 64 | 1014.9 |
| 20260509021005 | 61 | 211 | 1.0 | 3.0 | 0.00 | 0.00 | 0.00 | 64 | 1014.9 |
| 20260509020005 | 61 | 193 | 1.0 | 4.0 | 0.00 | 0.00 | 0.00 | 64 | 1015.0 |
| 20260509015504 | 61 | 184 | 1.0 | 4.0 | 0.00 | 0.00 | 0.00 | 63 | 1015.0 |
| 20260509015004 | 61 | 188 | 2.0 | 7.0 | 0.00 | 0.00 | 0.00 | 63 | 1015.0 |
| 20260509014505 | 62 | 204 | 2.0 | 7.0 | 0.00 | 0.00 | 0.00 | 63 | 1015.1 |
| 20260509013504 | 62 | 242 | 2.0 | 8.0 | 0.00 | 0.00 | 0.00 | 62 | 1015.0 |
| 20260509011505 | 62 | 1 | 0.0 | 4.0 | 0.00 | 0.00 | 0.00 | 62 | 1015.2 |
| 20260509011005 | 62 | 323 | 0.0 | 4.0 | 0.00 | 0.00 | 0.00 | 62 | 1015.4 |
| 20260509010504 | 62 | 338 | 1.0 | 4.0 | 0.00 | 0.00 | 0.00 | 62 | 1015.3 |
| 20260509010005 | 62 | 350 | 1.0 | 4.0 | 0.00 | 0.00 | 0.00 | 62 | 1015.5 |
| 20260509005505 | 62 | 330 | 1.0 | 4.0 | 0.00 | 0.00 | 0.00 | 61 | 1015.2 |
| 20260509005004 | 63 | 318 | 2.0 | 4.0 | 0.00 | 0.00 | 0.00 | 59 | 1015.5 |
| 20260509004506 | 63 | 331 | 1.0 | 4.0 | 0.00 | 0.00 | 0.00 | 59 | 1015.4 |
| 20260509004004 | 63 | 31 | 0.0 | 3.0 | 0.00 | 0.00 | 0.00 | 59 | 1015.5 |
| 20260509003505 | 63 | 354 | 0.0 | 3.0 | 0.00 | 0.00 | 0.00 | 58 | 1015.6 |
| 20260509002005 | 64 | 300 | 1.0 | 5.0 | 0.00 | 0.00 | 0.00 | 58 | 1015.7 |
| 20260509001504 | 64 | 314 | 2.0 | 5.0 | 0.00 | 0.00 | 0.00 | 57 | 1015.5 |
| 20260509000504 | 64 | 294 | 0.0 | 5.0 | 0.00 | 0.00 | 0.00 | 56 | 1015.7 |
| 20260509000005 | 64 | 277 | 0.0 | 5.0 | 0.00 | 0.00 | 0.00 | 56 | 1015.7 |
| 20260508235504 | 64 | 327 | 0.0 | 3.0 | 0.00 | 0.00 | 0.00 | 56 | 1015.7 |
| 20260508235005 | 64 | 330 | 1.0 | 3.0 | 0.00 | 0.00 | 0.00 | 56 | 1015.7 |
| 20260508234505 | 64 | 314 | 1.0 | 4.0 | 0.00 | 0.00 | 0.00 | 56 | 1015.8 |
| 20260508234004 | 64 | 299 | 1.0 | 4.0 | 0.00 | 0.00 | 0.00 | 56 | 1015.9 |
| 20260508233505 | 64 | 214 | 1.0 | 4.0 | 0.00 | 0.00 | 0.00 | 57 | 1015.9 |
| 20260508233005 | 64 | 205 | 1.0 | 7.0 | 0.00 | 0.00 | 0.00 | 58 | 1015.7 |
| 20260508232004 | 63 | 225 | 0.0 | 4.0 | 0.00 | 0.00 | 0.00 | 61 | 1016.0 |
| 20260508231004 | 63 | 90 | 0.0 | 2.0 | 0.00 | 0.00 | 0.00 | 61 | 1016.5 |
| 20260508230505 | 63 | 90 | 0.0 | 2.0 | 0.00 | 0.00 | 0.00 | 60 | 1016.4 |
| 20260508230004 | 63 | 181 | 0.0 | 3.0 | 0.00 | 0.00 | 0.00 | 59 | 1016.3 |
| 20260508224505 | 63 | 123 | 0.0 | 3.0 | 0.00 | 0.00 | 0.00 | 61 | 1016.4 |
| 20260508224004 | 63 | 67 | 0.0 | 3.0 | 0.00 | 0.00 | 0.00 | 61 | 1016.7 |
| 20260508223504 | 64 | 161 | 1.0 | 4.0 | 0.00 | 0.00 | 0.00 | 60 | 1016.5 |
| 20260508223004 | 64 | 181 | 1.0 | 4.0 | 0.00 | 0.00 | 0.00 | 60 | 1016.6 |
| 20260508222505 | 63 | 185 | 2.0 | 4.0 | 0.00 | 0.00 | 0.00 | 61 | 1016.6 |
| 20260508221505 | 63 | 181 | 1.0 | 4.0 | 0.00 | 0.00 | 0.00 | 61 | 1016.7 |
| 20260508215504 | 65 | 54 | 1.0 | 5.0 | 0.00 | 0.00 | 0.00 | 57 | 1016.6 |
| 20260508215005 | 66 | 114 | 1.0 | 3.0 | 0.00 | 0.00 | 0.00 | 55 | 1016.6 |
| 20260508214505 | 66 | 184 | 1.0 | 4.0 | 0.00 | 0.00 | 0.00 | 52 | 1016.4 |
| 20260508214004 | 66 | 241 | 1.0 | 4.0 | 0.00 | 0.00 | 0.00 | 50 | 1016.4 |
| 20260508213504 | 66 | 261 | 1.0 | 4.0 | 0.00 | 0.00 | 0.00 | 51 | 1016.6 |
| 20260508213004 | 66 | 257 | 0.0 | 4.0 | 0.00 | 0.00 | 0.00 | 51 | 1016.5 |
| 20260508212504 | 66 | 242 | 1.0 | 4.0 | 0.00 | 0.00 | 0.00 | 52 | 1016.5 |
| 20260508212005 | 66 | 251 | 0.0 | 4.0 | 0.00 | 0.00 | 0.00 | 52 | 1016.4 |
| 20260508211505 | 66 | 242 | 0.0 | 4.0 | 0.00 | 0.00 | 0.00 | 52 | 1016.5 |
| 20260508211004 | 65 | 226 | 0.0 | 7.0 | 0.00 | 0.00 | 0.00 | 53 | 1016.4 |
| 20260508210505 | 65 | 225 | 0.0 | 7.0 | 0.00 | 0.00 | 0.00 | 54 | 1016.4 |
| 20260508210005 | 64 | 288 | 0.0 | 7.0 | 0.00 | 0.00 | 0.00 | 56 | 1016.4 |
| 20260508205504 | 64 | 314 | 0.0 | 3.0 | 0.00 | 0.00 | 0.00 | 58 | 1016.4 |
| 20260508205004 | 64 | 314 | 0.0 | 2.0 | 0.00 | 0.00 | 0.00 | 58 | 1016.4 |
| 20260508204505 | 65 | 306 | 0.0 | 2.0 | 0.00 | 0.00 | 0.00 | 58 | 1016.5 |
| 20260508204004 | 65 | 151 | 1.0 | 4.0 | 0.00 | 0.00 | 0.00 | 58 | 1016.6 |
| 20260508203504 | 65 | 90 | 1.0 | 4.0 | 0.00 | 0.00 | 0.00 | 57 | 1016.6 |
| 20260508203005 | 65 | 39 | 1.0 | 4.0 | 0.00 | 0.00 | 0.00 | 56 | 1016.5 |
| 20260508202504 | 66 | 68 | 2.0 | 7.0 | 0.00 | 0.00 | 0.00 | 55 | 1016.2 |
| 20260508202004 | 66 | 90 | 3.0 | 7.0 | 0.00 | 0.00 | 0.00 | 54 | 1016.4 |
| 20260508201505 | 66 | 100 | 4.0 | 7.0 | 0.00 | 0.00 | 0.00 | 54 | 1016.3 |
| 20260508201004 | 66 | 111 | 2.0 | 7.0 | 0.00 | 0.00 | 0.00 | 52 | 1016.0 |
| 20260508200504 | 66 | 272 | 0.0 | 5.0 | 0.00 | 0.00 | 0.00 | 50 | 1016.2 |
| 20260508200005 | 66 | 291 | 0.0 | 5.0 | 0.00 | 0.00 | 0.00 | 50 | 1016.3 |
| 20260508195504 | 66 | 331 | 1.0 | 5.0 | 0.00 | 0.00 | 0.00 | 51 | 1016.3 |
| 20260508195004 | 66 | 23 | 1.0 | 5.0 | 0.00 | 0.00 | 0.00 | 52 | 1016.2 |
| 20260508194005 | 67 | 1 | 2.0 | 6.0 | 0.00 | 0.00 | 0.00 | 51 | 1016.1 |
| 20260508193505 | 67 | 359 | 3.0 | 8.0 | 0.00 | 0.00 | 0.00 | 50 | 1015.9 |
| 20260508192504 | 67 | 346 | 4.0 | 8.0 | 0.00 | 0.00 | 0.00 | 51 | 1015.8 |
| 20260508192004 | 68 | 326 | 3.0 | 7.0 | 0.00 | 0.00 | 0.00 | 50 | 1015.8 |
| 20260508191504 | 67 | 315 | 3.0 | 8.0 | 0.00 | 0.00 | 0.00 | 48 | 1015.8 |
| 20260508191004 | 67 | 312 | 3.0 | 9.0 | 0.00 | 0.00 | 0.00 | 49 | 1015.8 |
| 20260508190503 | 67 | 314 | 2.0 | 9.0 | 0.00 | 0.00 | 0.00 | 50 | 1015.6 |
| 20260508190005 | 67 | 337 | 2.0 | 9.0 | 0.00 | 0.00 | 0.00 | 51 | 1015.3 |
| 20260508185004 | 67 | 313 | 3.0 | 11.0 | 0.00 | 0.00 | 0.00 | 53 | 1015.2 |
| 20260508184504 | 67 | 332 | 3.0 | 11.0 | 0.00 | 0.00 | 0.00 | 51 | 1015.2 |
| 20260508183504 | 67 | 305 | 2.0 | 5.0 | 0.00 | 0.00 | 0.00 | 48 | 1015.0 |
| 20260508182504 | 68 | 277 | 2.0 | 10.0 | 0.00 | 0.00 | 0.00 | 49 | 1014.5 |
| 20260508182004 | 67 | 276 | 2.0 | 8.0 | 0.00 | 0.00 | 0.00 | 49 | 1014.4 |
| 20260508181504 | 67 | 273 | 2.0 | 8.0 | 0.00 | 0.00 | 0.00 | 51 | 1014.5 |
| 20260508181005 | 67 | 256 | 1.0 | 6.0 | 0.00 | 0.00 | 0.00 | 51 | 1014.5 |
| 20260508180504 | 67 | 118 | 1.0 | 4.0 | 0.00 | 0.00 | 0.00 | 53 | 1014.3 |
| 20260508175005 | 68 | 1 | 2.0 | 7.0 | 0.00 | 0.00 | 0.00 | 49 | 1014.6 |
| 20260508174004 | 69 | 255 | 1.0 | 8.0 | 0.00 | 0.00 | 0.00 | 46 | 1014.3 |
| 20260508173504 | 69 | 224 | 1.0 | 6.0 | 0.00 | 0.00 | 0.00 | 46 | 1014.1 |
| 20260508173005 | 69 | 240 | 2.0 | 7.0 | 0.00 | 0.00 | 0.00 | 46 | 1013.7 |
| 20260508172504 | 69 | 236 | 2.0 | 7.0 | 0.00 | 0.00 | 0.00 | 46 | 1013.6 |
| 20260508172004 | 69 | 228 | 2.0 | 6.0 | 0.00 | 0.00 | 0.00 | 47 | 1013.2 |
| 20260508171505 | 69 | 250 | 1.0 | 4.0 | 0.00 | 0.00 | 0.00 | 48 | 1013.4 |
| 20260508171004 | 69 | 238 | 0.0 | 4.0 | 0.00 | 0.00 | 0.00 | 49 | 1013.4 |
| 20260508170005 | 69 | 36 | 1.0 | 5.0 | 0.00 | 0.00 | 0.00 | 50 | 1013.6 |
| 20260508165004 | 70 | 350 | 3.0 | 8.0 | 0.00 | 0.00 | 0.00 | 49 | 1013.8 |
| 20260508164504 | 70 | 328 | 4.0 | 8.0 | 0.00 | 0.00 | 0.00 | 49 | 1013.9 |
| 20260508164004 | 70 | 323 | 3.0 | 8.0 | 0.00 | 0.00 | 0.00 | 50 | 1014.0 |
| 20260508163504 | 70 | 337 | 2.0 | 7.0 | 0.00 | 0.00 | 0.00 | 49 | 1013.8 |
| 20260508163005 | 70 | 356 | 1.0 | 7.0 | 0.00 | 0.00 | 0.00 | 48 | 1013.8 |
| 20260508162504 | 71 | 5 | 2.0 | 10.0 | 0.00 | 0.00 | 0.00 | 47 | 1013.8 |
| 20260508162004 | 72 | 348 | 3.0 | 10.0 | 0.00 | 0.00 | 0.00 | 47 | 1013.8 |
| 20260508161504 | 72 | 325 | 3.0 | 8.0 | 0.00 | 0.00 | 0.00 | 46 | 1013.9 |
| 20260508161004 | 73 | 321 | 4.0 | 10.0 | 0.00 | 0.00 | 0.00 | 43 | 1013.7 |
| 20260508160005 | 74 | 45 | 2.0 | 7.0 | 0.00 | 0.00 | 0.00 | 42 | 1013.4 |
| 20260508155004 | 75 | 84 | 4.0 | 13.0 | 0.00 | 0.00 | 0.00 | 40 | 1013.6 |
| 20260508154504 | 75 | 83 | 3.0 | 7.0 | 0.00 | 0.00 | 0.00 | 40 | 1013.6 |